Time,TemperatureF,DewpointF,PressureIn,WindDirection,WindDirectionDegrees,WindSpeedMPH,WindSpeedGustMPH,Humidity,HourlyPrecipIn,Conditions,Clouds,dailyrainin,SoftwareType,DateUTC
2013-08-06 00:00:00,65.8,61.5,29.92,SE,124,0.0,1.0,86,0.00,,---,0.00,VWS V14.00,2013-08-06 04:00:00,
2013-08-06 00:30:00,65.5,61.5,29.92,SE,124,1.0,3.0,87,0.00,,---,0.00,VWS V14.00,2013-08-06 04:30:00,
2013-08-06 01:00:00,65.2,61.2,29.92,SE,124,0.0,3.0,87,0.00,,---,0.00,VWS V14.00,2013-08-06 05:00:00,
2013-08-06 01:30:00,65.1,61.1,29.91,ESE,122,2.0,4.0,87,0.00,,---,0.00,VWS V14.00,2013-08-06 05:30:00,
2013-08-06 02:00:00,64.9,60.9,29.90,ESE,122,1.0,4.0,87,0.00,,---,0.00,VWS V14.00,2013-08-06 06:00:00,
2013-08-06 02:30:00,64.5,60.9,29.90,ESE,122,1.0,2.0,88,0.00,,---,0.00,VWS V14.00,2013-08-06 06:30:00,
2013-08-06 03:00:00,64.7,60.8,29.89,SE,124,1.0,3.0,87,0.00,,---,0.00,VWS V14.00,2013-08-06 07:00:00,
2013-08-06 03:30:00,64.9,60.6,29.90,ESE,121,1.0,4.0,86,0.00,,---,0.00,VWS V14.00,2013-08-06 07:30:00,
2013-08-06 04:00:00,65.0,60.7,29.89,SE,126,1.0,3.0,86,0.00,,---,0.00,VWS V14.00,2013-08-06 08:00:00,
2013-08-06 04:30:00,64.9,60.6,29.88,SE,124,1.0,3.0,86,0.00,,---,0.00,VWS V14.00,2013-08-06 08:30:00,
2013-08-06 05:00:00,64.2,60.9,29.88,ESE,122,0.0,3.0,89,0.00,,---,0.00,VWS V14.00,2013-08-06 09:00:00,
2013-08-06 05:30:00,63.8,60.8,29.88,ESE,122,0.0,0.0,90,0.00,,---,0.00,VWS V14.00,2013-08-06 09:30:00,
2013-08-06 06:00:00,63.6,60.6,29.88,ESE,123,0.0,0.0,90,0.00,,---,0.00,VWS V14.00,2013-08-06 10:00:00,
2013-08-06 06:30:00,63.3,60.9,29.89,ESE,122,0.0,0.0,92,0.00,,---,0.00,VWS V14.00,2013-08-06 10:30:00,
2013-08-06 07:00:00,62.7,60.7,29.88,ESE,120,0.0,3.0,93,0.00,,---,0.00,VWS V14.00,2013-08-06 11:00:00,
2013-08-06 07:30:00,62.8,60.8,29.89,SE,127,0.0,0.0,93,0.00,,---,0.00,VWS V14.00,2013-08-06 11:30:00,
2013-08-06 08:00:00,63.7,61.6,29.91,SE,127,0.0,0.0,93,0.00,,---,0.00,VWS V14.00,2013-08-06 12:00:00,
2013-08-06 08:30:00,64.8,61.8,29.91,SE,136,0.0,3.0,90,0.00,,---,0.00,VWS V14.00,2013-08-06 12:30:00,
2013-08-06 09:00:00,67.1,63.4,29.91,SSE,163,1.0,3.0,88,0.00,,---,0.00,VWS V14.00,2013-08-06 13:00:00,
2013-08-06 09:30:00,68.5,64.5,29.90,South,190,1.0,3.0,87,0.00,,---,0.00,VWS V14.00,2013-08-06 13:30:00,
2013-08-06 10:00:00,70.0,65.6,29.90,SW,231,3.0,5.0,86,0.00,,---,0.00,VWS V14.00,2013-08-06 14:00:00,
2013-08-06 10:30:00,70.5,66.4,29.90,SW,215,3.0,7.0,87,0.00,,---,0.00,VWS V14.00,2013-08-06 14:30:00,
2013-08-06 11:00:00,71.6,66.9,29.89,WSW,237,3.0,5.0,85,0.00,,---,0.00,VWS V14.00,2013-08-06 15:00:00,
2013-08-06 11:30:00,72.6,68.2,29.89,SW,222,3.0,5.0,86,0.00,,---,0.00,VWS V14.00,2013-08-06 15:30:00,
2013-08-06 12:00:00,74.1,68.6,29.90,WNW,298,2.0,6.0,83,0.00,,---,0.00,VWS V14.00,2013-08-06 16:00:00,
2013-08-06 12:30:00,74.2,68.7,29.90,SSE,167,1.0,5.0,83,0.00,,---,0.00,VWS V14.00,2013-08-06 16:30:00,
2013-08-06 13:00:00,74.9,69.0,29.91,SSW,195,0.0,6.0,82,0.00,,---,0.00,VWS V14.00,2013-08-06 17:00:00,
2013-08-06 13:30:00,74.8,69.3,29.90,SW,233,1.0,6.0,83,0.00,,---,0.00,VWS V14.00,2013-08-06 17:30:00,
2013-08-06 14:00:00,73.8,68.7,29.91,WSW,257,1.0,5.0,84,0.00,,---,0.00,VWS V14.00,2013-08-06 18:00:00,
2013-08-06 14:30:00,74.4,69.6,29.90,SE,129,1.0,5.0,85,0.00,,---,0.00,VWS V14.00,2013-08-06 18:30:00,
2013-08-06 15:00:00,76.7,69.7,29.88,West,278,1.0,5.0,79,0.00,,---,0.00,VWS V14.00,2013-08-06 19:00:00,
2013-08-06 15:30:00,76.7,70.1,29.88,ESE,120,2.0,5.0,80,0.00,,---,0.00,VWS V14.00,2013-08-06 19:30:00,
2013-08-06 16:00:00,77.2,70.9,29.87,SW,217,0.0,6.0,81,0.00,,---,0.00,VWS V14.00,2013-08-06 20:00:00,
2013-08-06 16:30:00,78.5,71.4,29.87,ESE,113,0.0,4.0,79,0.00,,---,0.00,VWS V14.00,2013-08-06 20:30:00,
2013-08-06 17:00:00,78.9,71.1,29.86,ESE,115,1.0,6.0,77,0.00,,---,0.00,VWS V14.00,2013-08-06 21:00:00,
2013-08-06 17:30:00,80.4,71.8,29.86,WSW,258,0.0,5.0,75,0.00,,---,0.00,VWS V14.00,2013-08-06 21:30:00,
2013-08-06 18:00:00,80.8,71.3,29.86,WSW,257,2.0,5.0,73,0.00,,---,0.00,VWS V14.00,2013-08-06 22:00:00,
2013-08-06 18:30:00,81.3,71.8,29.86,NW,304,2.0,5.0,73,0.00,,---,0.00,VWS V14.00,2013-08-06 22:30:00,
2013-08-06 19:00:00,78.9,71.1,29.87,SSW,197,3.0,5.0,77,0.00,,---,0.00,VWS V14.00,2013-08-06 23:00:00,
2013-08-06 19:30:00,78.9,71.1,29.87,SW,229,2.0,5.0,77,0.00,,---,0.00,VWS V14.00,2013-08-06 23:30:00,
2013-08-06 20:00:00,75.9,70.0,29.86,ESE,110,0.0,3.0,82,0.00,,---,0.00,VWS V14.00,2013-08-07 00:00:00,
2013-08-06 20:30:00,74.0,69.9,29.86,ESE,111,0.0,0.0,87,0.00,,---,0.00,VWS V14.00,2013-08-07 00:30:00,
2013-08-06 21:00:00,72.6,69.5,29.86,ESE,111,0.0,0.0,90,0.00,,---,0.00,VWS V14.00,2013-08-07 01:00:00,
2013-08-06 21:30:00,71.8,69.3,29.86,ESE,112,0.0,0.0,92,0.00,,---,0.00,VWS V14.00,2013-08-07 01:30:00,
2013-08-06 22:00:00,71.2,69.1,29.87,ESE,112,0.0,0.0,93,0.00,,---,0.00,VWS V14.00,2013-08-07 02:00:00,
2013-08-06 22:30:00,70.9,69.1,29.87,ESE,117,0.0,0.0,94,0.00,,---,0.00,VWS V14.00,2013-08-07 02:30:00,
2013-08-06 23:00:00,70.8,69.0,29.87,ESE,121,0.0,0.0,94,0.00,,---,0.00,VWS V14.00,2013-08-07 03:00:00,
2013-08-06 23:30:00,70.5,69.0,29.87,ESE,121,0.0,0.0,95,0.00,,---,0.00,VWS V14.00,2013-08-07 03:30:00,